sat.trackr.live / text

‹ back to catalog

STARLINK-2420

NORAD 47831 · 2021-018AW

PAYLOAD ACTIVE UNKNOWN

§ Identity

Operator
Country
US
Launch date
2021-03-11
Launch site
AFETR
Launch vehicle
Mass (kg)
RCS (m²)

Purposes: comms

External: N2YO · Heavens-Above · Gunter

§ Orbital elements

Epoch: 2026-05-24T23:57:21.273696Z

Period
94.01 min
Inclination
53.1589°
Eccentricity
0.0001015
Mean motion
15.31707382 rev/d
Perigee alt
470.0 km
Apogee alt
471.4 km
Semi-major
6,848.9 km
B*
-4.2540e-5
RAAN
247.7811°
Arg perigee
89.1509°
Mean anomaly
270.9609°
Rev number
28,845

§ Raw data

STARLINK-24201 47831U 21018AW  26144.99816289 -.00001685  00000+0 -42540-4 0  99942 47831  53.1589 247.7811 0001015  89.1509 270.9609 15.31707382288452

JSON: /api/v1/satellites/47831 · /tle

For live sub-satellite position, see the globe view (requires WebGL).

§ Visibility from observer

Set your observer location to see the next 7 days of passes ≥ 10°. The values pass through the URL so the page stays shareable.

No JS? Fill the form by hand. The geolocation button needs JavaScript.